When you browse on this site, cookies collect data to enhance your experience and personalize the content and advertising you see.
Visit our Privacy Policy to learn more. By continuing to use the site, you agree to this use of cookies and data.
  • In Sweden
  • List of Countries
  • For 7 days
  • Water Temperature
  • Weather Map
  • Weather Widgets
  • user-avatar
    Login

    Hourly Weather Létavértes

    Today, 22 October, Tuesday

    Time Temperature Precipitation Wind Pressure Humidity
    00:00 +19°C° 0 mm 1 mps 758 mmHg 59%
    01:00 +18°C° 0 mm 1 mps 758 mmHg 60%
    02:00 +18°C° 0 mm 1 mps 758 mmHg 61%
    03:00 +18°C° 0 mm 1 mps 758 mmHg 62%
    04:00 +16°C° 0 mm 1 mps 758 mmHg 63%
    05:00 +18°C° 0 mm 1 mps 758 mmHg 63%
    06:00 +18°C° 0 mm 1 mps 758 mmHg 62%
    07:00 +18°C° 0 mm 1 mps 758 mmHg 62%
    08:00 +20°C° 0 mm 1 mps 758 mmHg 56%
    09:00 +20°C° 0 mm 0 mps 758 mmHg 50%
    10:00 +22°C° 0 mm 0 mps 758 mmHg 44%
    11:00 +23°C° 0 mm 0 mps 758 mmHg 42%
    12:00 +24°C° 0 mm 0 mps 758 mmHg 40%
    13:00 +25°C° 0 mm 0 mps 758 mmHg 38%
    14:00 +24°C° 0 mm 0 mps 758 mmHg 42%
    15:00 +23°C° 0 mm 0 mps 757 mmHg 45%
    16:00 +24°C° 0 mm 1 mps 757 mmHg 48%
    17:00 +23°C° 0 mm 1 mps 757 mmHg 51%
    18:00 +22°C° 0 mm 1 mps 757 mmHg 54%
    19:00 +21°C° 0 mm 1 mps 758 mmHg 57%
    20:00 +20°C° 0 mm 1 mps 758 mmHg 58%
    21:00 +20°C° 0 mm 1 mps 758 mmHg 60%
    22:00 +20°C° 0 mm 1 mps 758 mmHg 61%
    23:00 +19°C° 0 mm 1 mps 758 mmHg 62%

    Tomorrow, 23 October, Wednesday

    Time Temperature Precipitation Wind Pressure Humidity
    00:00 +19°C° 0 mm 1 mps 758 mmHg 64%
    01:00 +18°C° 0 mm 1 mps 758 mmHg 65%
    02:00 +18°C° 0 mm 1 mps 757 mmHg 66%
    03:00 +18°C° 0 mm 1 mps 757 mmHg 67%
    04:00 +16°C° 0 mm 1 mps 757 mmHg 69%
    05:00 +16°C° 0 mm 1 mps 757 mmHg 69%
    06:00 +16°C° 0 mm 1 mps 757 mmHg 69%
    07:00 +16°C° 0 mm 1 mps 757 mmHg 69%
    08:00 +19°C° 0 mm 1 mps 757 mmHg 62%
    09:00 +21°C° 0 mm 1 mps 757 mmHg 55%
    10:00 +23°C° 0 mm 1 mps 757 mmHg 49%
    11:00 +25°C° 0 mm 1 mps 757 mmHg 45%
    12:00 +24°C° 0 mm 0 mps 757 mmHg 42%
    13:00 +25°C° 0 mm 0 mps 756 mmHg 39%
    14:00 +24°C° 0 mm 0 mps 756 mmHg 42%
    15:00 +23°C° 0 mm 0 mps 756 mmHg 45%
    16:00 +24°C° 0 mm 1 mps 755 mmHg 48%
    17:00 +23°C° 0 mm 1 mps 755 mmHg 51%
    18:00 +22°C° 0 mm 1 mps 755 mmHg 54%
    19:00 +20°C° 0 mm 1 mps 756 mmHg 57%
    20:00 +20°C° 0 mm 1 mps 756 mmHg 59%
    21:00 +20°C° 0 mm 1 mps 756 mmHg 61%
    22:00 +19°C° 0 mm 1 mps 756 mmHg 63%
    23:00 +19°C° 0 mm 1 mps 755 mmHg 64%

    Day after tomorrow, 24 October, Thursday

    Time Temperature Precipitation Wind Pressure Humidity
    00:00 +18°C° 0 mm 1 mps 755 mmHg 66%
    01:00 +18°C° 0 mm 1 mps 755 mmHg 67%
    02:00 +18°C° 0 mm 1 mps 755 mmHg 69%
    03:00 +16°C° 0 mm 1 mps 755 mmHg 70%
    04:00 +16°C° 0 mm 1 mps 755 mmHg 71%
    05:00 +16°C° 0 mm 1 mps 755 mmHg 71%
    06:00 +16°C° 0 mm 1 mps 755 mmHg 70%
    07:00 +16°C° 0 mm 1 mps 754 mmHg 69%
    08:00 +19°C° 0 mm 1 mps 754 mmHg 61%
    09:00 +21°C° 0 mm 1 mps 754 mmHg 53%
    10:00 +24°C° 0 mm 1 mps 754 mmHg 45%
    11:00 +25°C° 0 mm 1 mps 754 mmHg 41%
    12:00 +26°C° 0 mm 1 mps 754 mmHg 38%
    13:00 +27°C° 0 mm 1 mps 754 mmHg 34%
    14:00 +26°C° 0 mm 1 mps 753 mmHg 37%
    15:00 +25°C° 0 mm 1 mps 753 mmHg 39%
    16:00 +24°C° 0 mm 1 mps 753 mmHg 42%
    17:00 +23°C° 0 mm 1 mps 753 mmHg 46%
    18:00 +21°C° 0 mm 1 mps 753 mmHg 49%
    19:00 +20°C° 0 mm 1 mps 753 mmHg 53%
    20:00 +20°C° 0 mm 1 mps 753 mmHg 55%
    21:00 +19°C° 0 mm 1 mps 753 mmHg 57%
    22:00 +19°C° 0 mm 1 mps 753 mmHg 59%
    23:00 +19°C° 0 mm 1 mps 753 mmHg 60%

    25 October, Friday

    Time Temperature Precipitation Wind Pressure Humidity
    00:00 +18°C° 0 mm 1 mps 753 mmHg 61%
    01:00 +16°C° 0 mm 0 mps 753 mmHg 62%
    02:00 +15°C° 0 mm 0 mps 754 mmHg 64%
    03:00 +15°C° 0 mm 0 mps 754 mmHg 65%
    04:00 +14°C° 0 mm 0 mps 754 mmHg 67%
    05:00 +14°C° 0 mm 0 mps 754 mmHg 67%
    06:00 +15°C° 0 mm 0 mps 754 mmHg 67%
    07:00 +15°C° 0 mm 0 mps 754 mmHg 67%
    08:00 +17°C° 0 mm 0 mps 755 mmHg 60%
    09:00 +19°C° 0 mm 0 mps 755 mmHg 52%
    10:00 +21°C° 0 mm 0 mps 755 mmHg 45%
    11:00 +22°C° 0 mm 0 mps 755 mmHg 41%
    12:00 +25°C° 0 mm 1 mps 755 mmHg 38%
    13:00 +26°C° 0 mm 1 mps 755 mmHg 34%
    14:00 +25°C° 0 mm 1 mps 755 mmHg 37%
    15:00 +24°C° 0 mm 1 mps 755 mmHg 39%
    16:00 +20°C° 0 mm 0 mps 755 mmHg 42%
    17:00 +19°C° 0 mm 0 mps 755 mmHg 44%
    18:00 +20°C° 0 mm 1 mps 755 mmHg 47%
    19:00 +19°C° 0 mm 1 mps 756 mmHg 49%
    20:00 +19°C° 0 mm 1 mps 756 mmHg 52%
    21:00 +18°C° 0 mm 1 mps 756 mmHg 54%
    22:00 +16°C° 0 mm 1 mps 756 mmHg 57%
    23:00 +16°C° 0 mm 1 mps 756 mmHg 59%

    26 October, Saturday

    Time Temperature Precipitation Wind Pressure Humidity
    00:00 +15°C° 0 mm 1 mps 756 mmHg 61%
    01:00 +15°C° 0 mm 1 mps 756 mmHg 63%
    02:00 +15°C° 0 mm 1 mps 756 mmHg 63%
    03:00 +14°C° 0 mm 1 mps 756 mmHg 64%
    04:00 +14°C° 0 mm 1 mps 756 mmHg 65%
    05:00 +14°C° 0 mm 1 mps 756 mmHg 66%
    06:00 +14°C° 0 mm 2 mps 756 mmHg 67%
    07:00 +14°C° 0 mm 2 mps 756 mmHg 68%
    08:00 +16°C° 0 mm 2 mps 757 mmHg 60%
    09:00 +18°C° 0 mm 2 mps 757 mmHg 52%
    10:00 +20°C° 0 mm 3 mps 757 mmHg 45%
    11:00 +21°C° 0 mm 3 mps 757 mmHg 42%
    12:00 +22°C° 0 mm 3 mps 756 mmHg 39%
    13:00 +24°C° 0 mm 3 mps 756 mmHg 37%
    14:00 +22°C° 0 mm 3 mps 756 mmHg 41%
    15:00 +21°C° 0 mm 2 mps 755 mmHg 46%
    16:00 +20°C° 0 mm 2 mps 755 mmHg 51%
    17:00 +20°C° 0 mm 1 mps 755 mmHg 55%
    18:00 +19°C° 0 mm 1 mps 755 mmHg 58%
    19:00 +18°C° 0 mm 1 mps 755 mmHg 62%
    20:00 +16°C° 0 mm 1 mps 756 mmHg 63%
    21:00 +16°C° 0 mm 1 mps 756 mmHg 64%
    22:00 +16°C° 0 mm 1 mps 756 mmHg 65%
    23:00 +15°C° 0 mm 2 mps 756 mmHg 67%

    27 October, Sunday

    Time Temperature Precipitation Wind Pressure Humidity
    00:00 +15°C° 0 mm 2 mps 755 mmHg 68%
    01:00 +14°C° 0 mm 2 mps 755 mmHg 69%
    02:00 +14°C° 0 mm 2 mps 755 mmHg 70%
    03:00 +14°C° 0 mm 2 mps 755 mmHg 71%
    04:00 +14°C° 0 mm 2 mps 755 mmHg 72%
    05:00 +14°C° 0 mm 2 mps 755 mmHg 72%
    06:00 +14°C° 0 mm 2 mps 755 mmHg 71%
    07:00 +14°C° 0 mm 2 mps 755 mmHg 71%
    08:00 +16°C° 0 mm 2 mps 755 mmHg 65%
    09:00 +18°C° 0 mm 2 mps 755 mmHg 59%
    10:00 +20°C° 0 mm 3 mps 755 mmHg 53%
    11:00 +21°C° 0 mm 3 mps 754 mmHg 49%
    12:00 +22°C° 0 mm 3 mps 754 mmHg 46%
    13:00 +24°C° 0 mm 3 mps 754 mmHg 43%
    14:00 +22°C° 0 mm 3 mps 754 mmHg 46%
    15:00 +21°C° 0 mm 2 mps 753 mmHg 48%
    16:00 +20°C° 0 mm 2 mps 753 mmHg 51%
    17:00 +19°C° 0 mm 2 mps 753 mmHg 53%
    18:00 +18°C° 0 mm 2 mps 754 mmHg 56%
    19:00 +17°C° 0 mm 2 mps 754 mmHg 58%
    20:00 +17°C° 0 mm 2 mps 754 mmHg 61%
    21:00 +16°C° 0 mm 2 mps 754 mmHg 64%
    22:00 +15°C° 0 mm 2 mps 754 mmHg 66%
    23:00 +15°C° 0 mm 2 mps 754 mmHg 69%

    28 October, Monday

    Time Temperature Precipitation Wind Pressure Humidity
    00:00 +13°C° 0 mm 3 mps 754 mmHg 72%
    01:00 +12°C° 0 mm 3 mps 754 mmHg 75%
    02:00 +11°C° 0 mm 3 mps 754 mmHg 71%
    03:00 +10°C° 0 mm 3 mps 754 mmHg 66%
    04:00 +10°C° 0 mm 4 mps 754 mmHg 62%
    05:00 +10°C° 0 mm 3 mps 754 mmHg 60%
    06:00 +10°C° 0 mm 3 mps 754 mmHg 58%
    07:00 +10°C° 0 mm 2 mps 754 mmHg 56%
    08:00 +10°C° 0 mm 2 mps 754 mmHg 53%
    09:00 +11°C° 0 mm 3 mps 755 mmHg 50%
    10:00 +12°C° 0 mm 3 mps 755 mmHg 48%
    11:00 +12°C° 0 mm 3 mps 755 mmHg 47%
    12:00 +12°C° 0 mm 3 mps 755 mmHg 46%
    13:00 +12°C° 0 mm 3 mps 755 mmHg 45%
    14:00 +11°C° 0 mm 3 mps 754 mmHg 47%
    15:00 +11°C° 0 mm 3 mps 754 mmHg 49%
    16:00 +10°C° 0 mm 3 mps 754 mmHg 51%
    17:00 +10°C° 0 mm 3 mps 754 mmHg 55%
    18:00 +9°C° 0 mm 3 mps 754 mmHg 59%
    19:00 +9°C° 0 mm 3 mps 754 mmHg 63%
    20:00 +9°C° 0 mm 2 mps 754 mmHg 67%
    21:00 +9°C° 0 mm 2 mps 754 mmHg 71%
    22:00 +8°C° 0 mm 2 mps 754 mmHg 76%
    23:00 +8°C° 0 mm 2 mps 754 mmHg 77%
    Show more